Retour au catalogue

ONEWEB-0622

ActifCommunicationsPO
NORAD 55163·PAYLOAD·🇬🇧 United Kingdom

Lancé Jan 10, 2023 depuis Cape Canaveral Space Force Station

Loading…

Prochains Passages (prochaines 24 heures)

TLE

FraisSource: CelesTrak SupGP

Époque: Sep 14, 2026, 21:41 UTC

1 55163C 23004Z   26257.90398565 -.00001021  00000+0 -28853-2 0  2576
2 55163  87.8973   3.2350 0001703 130.9137 269.4931 13.11421166    13

Suivez ONEWEB-0622 en temps réel avec AllMySat

Download on the App Store